Retour au catalogue

ARIANE 3 DEB

ActifGTO
NORAD 33537·DEBRIS·🇫🇷 France

Lancé Sep 8, 1988 depuis Guiana Space Centre

Loading…

TLE

VieillissantSource: Space-Track

Époque: Sep 14, 2026, 10:05 UTC

1 33537U 88081M   26257.42042447 -.00000066  00000-0  00000-0 0  9998
2 33537   6.7895  69.2022 7008551 184.4514 218.0093  2.16882153106558

Suivez ARIANE 3 DEB en temps réel avec AllMySat

Download on the App Store